Regional Weather Roundup
Issued by NWS

Home | Current Version | Previous Version | Text Only | Print | Product List | Glossary On
Versions: 1 2 3 4 5 6 7 8 9 10 11 12 13 14 15 16 17 18 19 20 21 22 23 24 25 26 27 28 29 30 31 32 33 34 35 36 37 38 39 40 41 42 43 44 45 46 47 48 49 50
000
ASUS45 KREV 232310
RWRNV
NEVADA REGIONAL WEATHER ROUNDUP
NATIONAL WEATHER SERVICE RENO NV
400 PM PDT SUN JUL 23 2017

NOTE: "FAIR" INDICATES FEW OR NO CLOUDS BELOW 12,000 FEET WITH NO
SIGNIFICANT WEATHER AND/OR OBSTRUCTIONS TO VISIBILITY.

NVZ001-003-004-240000-
WESTERN NEVADA

CITY           SKY/WX    TMP DP  RH WIND       PRES   REMARKS
RENO           MOSUNNY  102  36  10 NW14      29.94F
CARSON CITY    FAIR      95  32  11 W17G23    29.99F
MINDEN         FAIR      95  37  13 NW13G20   29.99F
FALLON         PTSUNNY  102  27   7 W8        29.88F
LOVELOCK       MOSUNNY   99  39  12 VRB5      29.89F
HAWTHORNE      MOSUNNY   88  45  22 NW13      29.91S
$$

NVZ002-CAZ072-073-240000-
NORTHERN AND CENTRAL SIERRA

CITY           SKY/WX    TMP DP  RH WIND       PRES   REMARKS
S. LAKE TAHOE  SUNNY     87  34  15 S15G21    30.14F
TRUCKEE        MOSUNNY   90  39  17 SW10G16   30.13S
SQUAW VLY 8000   N/A     73  45  35 SW9         N/A
SUSANVILLE     SUNNY     95  41  15 SW13      29.96F
MAMMOTH LAKES  FAIR      88  34  14 W22       30.20F
BRIDGEPORT     FAIR      87  31  13 SW13G24   30.16F
$$

NVZ030-031-036-240000-
NORTHERN NEVADA

CITY           SKY/WX    TMP DP  RH WIND       PRES   REMARKS
ELKO           MOSUNNY   95  31  10 SW6       30.00F
WINNEMUCCA     MOSUNNY  101  32   9 W6        29.92F
WENDOVER       MOSUNNY   93  39  15 E8        29.98F
$$

NVZ035-037-240000-
CENTRAL NEVADA

CITY           SKY/WX    TMP DP  RH WIND       PRES   REMARKS
ELY              N/A    N/A N/A N/A MISG      30.17S
EUREKA           N/A     74  48  39 NW17G25   30.18S
$$

NVZ013-014-240000-
SOUTH CENTRAL NEVADA

CITY           SKY/WX    TMP DP  RH WIND       PRES   REMARKS
TONOPAH        TSTM      81  58  45 S20       30.05S
$$

NVZ017-020-022-240000-
SOUTHERN NEVADA

CITY           SKY/WX    TMP DP  RH WIND       PRES   REMARKS
LAS VEGAS      MOSUNNY  107  50  15 SE6       29.75F
N. LAS VEGAS   MOSUNNY  107  49  14 VRB3      29.74F
NELLIS AFB     MOSUNNY  107  53  16 CALM      29.71F HX 105
HENDERSON      PTSUNNY  N/A N/A N/A E9        29.78F
MERCURY        SUNNY    106  42  11 SW13      29.83F
$$



USA.gov is the U.S. government's official web portal to all federal, state and local government web resources and services.